[[[{"header":{"parameterUnit":"kt","parameterCategory":2,"dx":1,"dy":1,"la1":30.253999710083008,"la2":30.299108505249023,"lo1":-89.0895004272461,"lo2":-89.04439544677734,"nx":28,"ny":28,"refTime":"2022-09-23T21:00:00:Z","depth":0,"parameterNumber":1,"parameterNumberName":"U-component_of_WINDS"},"data":[-3.6641,-3.6714,-3.6684,-3.6754,-3.6738,-3.6781,-3.6787,-3.6791,-3.6786,-3.6834,-3.6856,-3.6833,-3.6816,-3.6835,-3.6858,-3.6847,-3.6859,-3.6907,-3.6886,-3.6695,-3.6667,-3.664,-3.662,-3.691,-3.6911,-3.7088,-3.709,-3.7091,-3.6507,-3.6492,-3.652,-3.6526,-3.655,-3.6485,-3.6485,-3.6509,-3.6549,-3.6543,-3.6563,-3.6602,-3.6629,-3.6594,-3.6615,-3.6649,-3.662,-3.6657,-3.6654,-3.6653,-3.6448,-3.6427,-3.6681,-3.6681,-3.6681,-3.6681,-3.6681,-3.668,-3.6254,-3.6299,-3.6285,-3.6314,-3.6308,-3.6313,-3.635,-3.632,-3.6346,-3.6364,-3.6321,-3.6365,-3.6354,-3.6362,-3.6358,-3.6391,-3.6344,-3.6375,-3.6383,-3.6392,-3.6407,-3.6157,-3.6393,-3.6392,-3.6391,-3.6391,-3.639,0,-3.606,-3.6031,-3.6055,-3.607,-3.6089,-3.6098,-3.61,-3.6122,-3.6049,-3.6074,-3.6108,-3.6121,-3.6149,-3.6177,-3.6189,-3.6176,-3.6111,-3.61,-3.6122,-3.6144,-3.6163,-3.6155,-3.5823,-3.6094,-3.6091,-3.6089,-3.6088,-3.6086,-3.5804,-3.5859,-3.5828,-3.5849,-3.5841,-3.5876,-3.589,-3.5821,-3.5839,-3.5832,-3.5875,-3.5901,-3.5918,-3.5977,-3.594,-3.5961,-3.5929,-3.6036,-3.5931,-3.5951,-3.5932,-3.5929,-3.5935,-3.6058,-3.6062,-3.6065,-3.6067,0,-3.5663,-3.561,-3.5685,-3.5648,-3.564,-3.5702,-3.5669,-3.5711,-3.5675,-3.5728,-3.5736,-3.5681,-3.5715,-3.5659,-3.5686,-3.5656,-3.5759,-3.5727,-3.5763,-3.5754,-3.5845,-3.5838,-3.6148,-3.6185,-3.5883,-3.5886,-3.5889,0,-3.5424,-3.5499,-3.5416,-3.5462,-3.5543,-3.547,-3.5553,-3.553,-3.5517,-3.5557,-3.5473,-3.5513,-3.5434,-3.5467,-3.5423,-3.5496,-3.5501,-3.5483,-3.547,-3.5491,-3.5493,-3.5499,-3.5486,-3.5438,-3.5436,-3.5435,-3.5434,0,-3.5209,-3.5251,-3.5326,-3.5327,-3.5293,-3.533,-3.5318,-3.5301,-3.5316,-3.5325,-3.5333,-3.5349,-3.5359,-3.5373,-3.5316,-3.5247,-3.5404,-3.5297,-3.5385,-3.5387,-3.5423,-3.5422,-3.571,-3.5432,-3.5431,-3.5431,-3.543,0,-3.5007,-3.5017,-3.5133,-3.5102,-3.5116,-3.5165,-3.5175,-3.5204,-3.5193,-3.5168,-3.5174,-3.5111,-3.5169,-3.5068,-3.5148,-3.5074,-3.5089,-3.5076,-3.5081,-3.5083,-3.4971,-3.5143,-3.5422,-3.5449,-3.5086,-3.5083,-3.508,0,-3.4777,-3.4878,-3.4815,-3.4926,-3.4965,-3.4867,-3.492,-3.4912,-3.4882,-3.4911,-3.4877,-3.4911,-3.4823,-3.4826,-3.4872,-3.484,-3.4935,-3.4825,-3.487,-3.4872,-3.4876,-3.5133,-3.5188,-3.5367,-3.5042,-3.5046,-3.5049,0,-3.4591,-3.4547,-3.4571,-3.4569,-3.4545,-3.4577,-3.4638,-3.4654,-3.4677,-3.4676,-3.4726,-3.477,-3.4706,-3.4711,-3.466,-3.4712,-3.4869,-3.4636,-3.4635,-3.4681,-3.5018,-3.5071,-3.5101,-3.4823,-3.4828,-3.4831,-3.5019,0,-3.43,-3.4342,-3.4405,-3.4401,-3.4416,-3.4482,-3.442,-3.4444,-3.4393,-3.4359,-3.443,-3.4408,-3.4425,-3.4443,-3.4393,-3.4529,-3.4498,-3.4428,-3.4326,-3.4494,-3.4555,-3.4579,-3.4241,-3.4237,-3.4235,-3.4232,0,0,-3.4093,-3.4151,-3.4079,-3.4134,-3.4142,-3.4037,-3.4113,-3.4109,-3.4103,-3.4111,-3.4053,-3.4113,-3.4097,-3.419,-3.4238,-3.4244,-3.4263,-3.4206,-3.4414,-3.4435,-3.4454,-3.4519,-3.4546,-3.4227,-3.4226,-3.4225,-3.4224,0,-3.3973,-3.3958,-3.4032,-3.4024,-3.401,-3.3969,-3.3988,-3.3954,-3.3936,-3.4004,-3.3916,-3.3951,-3.4001,-3.3996,-3.4,-3.4193,-3.4126,-3.4203,-3.4328,-3.4387,-3.4412,-3.4433,-3.4503,-3.4529,-3.4217,-3.4218,-3.4218,0,-3.3779,-3.3754,-3.3783,-3.3795,-3.3784,-3.3826,-3.3702,-3.3751,-3.3781,-3.3663,-3.3732,-3.3712,-3.3699,-3.3794,-3.3834,-3.3783,-3.4004,-3.3922,-3.3939,-3.3942,-3.3996,-3.4026,-3.4052,-3.3707,-3.3706,-3.3704,0,0,-3.3684,-3.3722,-3.3672,-3.3764,-3.3763,-3.3704,-3.3719,-3.3669,-3.3659,-3.3656,-3.3627,-3.3621,-3.3649,-3.3669,-3.3691,-3.3804,-3.3796,-3.3862,-3.3886,-3.3906,-3.392,-3.398,-3.4009,-3.3699,-3.3698,-3.3698,0,0,-3.3639,-3.3584,-3.3534,-3.3632,-3.3626,-3.3583,-3.3641,-3.3579,-3.3592,-3.3578,-3.3496,-3.349,-3.3578,-3.3561,-3.3491,-3.3653,-3.3553,-3.3568,-3.3661,-3.3691,-3.3714,-3.3717,-3.3361,0,0,0,0,0,-3.3483,-3.359,-3.3546,-3.3553,-3.3566,-3.3608,-3.3609,-3.3543,-3.3474,-3.3522,-3.3488,-3.3413,-3.3506,-3.3443,-3.3451,-3.353,-3.3625,-3.3638,-3.365,-3.3797,-3.3828,-3.3855,0,0,0,0,0,0,-3.3485,-3.3494,-3.3542,-3.3505,-3.3507,-3.3603,-3.3471,-3.3456,-3.3467,-3.3452,-3.3422,-3.3412,-3.3357,-3.3434,-3.3443,-3.3518,-3.3358,-3.363,-3.3641,-3.3651,-3.3807,-3.3833,-3.3855,0,0,0,0,0,-3.3487,-3.3494,-3.3533,-3.3503,-3.3505,-3.3444,-3.3466,-3.3453,-3.346,-3.3407,-3.3394,-3.3409,-3.3361,-3.3364,-3.3439,-3.3516,-3.3352,-3.3355,-3.3637,-3.3646,-3.3654,-3.382,0,0,0,0,0,0,-3.3488,-3.3482,-3.3532,-3.353,-3.3457,-3.3437,-3.3431,-3.345,-3.3413,-3.3402,-3.3389,-3.3378,-3.3366,-3.3367,-3.3369,-3.3519,-3.3346,-3.335,-3.3352,-3.3644,-3.365,-3.3657,0,0,0,0,0,0,-3.3477,-3.3481,-3.3531,-3.3476,-3.3468,-3.3431,-3.3426,-3.348,-3.3414,-3.3397,-3.3386,-3.3385,-3.3362,-3.3369,-3.3371,-3.3457,-3.3342,-3.3346,-3.3348,-3.335,-3.3649,-3.3655,0,0,0,0,0,0,-3.3478,-3.3481,-3.3476,-3.347,-3.3462,-3.3437,-3.3477,-3.3495,-3.3367,-3.34,-3.3353,-3.3347,-3.3367,-3.3366,-3.3373,-3.3459,-3.3458,-3.3343,-3.3345,-3.3346,-3.3348,0,0,0,0,0,0,0,-3.3478,-3.3473,-3.3542,-3.3464,-3.3457,-3.3514,-3.3513,-3.3513,-3.3366,-3.336,-3.3355,-3.335,-3.3323,-3.3327,-3.3331,-3.346,0,0,-3.3342,-3.3344,0,0,0,0,0,0,0,0,-3.3471,-3.3473,-3.3542,-3.3542,-3.3542,-3.3513,-3.3513,-3.3513,-3.3365,-3.336,-3.3356,-3.3352,-3.3324,-3.3327,-3.333,0,0,0,0,0,0,0,0,0,0,0,0,0,0,0,-3.3542,-3.3542,0,-3.3513,-3.3513,-3.3513,-3.3364,-3.336,-3.3357,-3.3354,-3.3325,-3.3327,-3.333,0,0,0,0,0,0,0,0,0,0,0,0,0,0,0,0,0,0,0,0,0,0,0,0,0,0,0,0,0,0,0,0,0,0,0,0,0,0,0,0,0,0,0,0,0,0,0,0,0,0,0,0,0,0,0,0,0,0,0,0,0,0,0,0,0,0,0,0,0]}],[{"header":{"parameterUnit":"kt","parameterCategory":2,"dx":1,"dy":1,"la1":30.253999710083008,"la2":30.299108505249023,"lo1":-89.0895004272461,"lo2":-89.04439544677734,"nx":28,"ny":28,"refTime":"2022-09-23T21:00:00:Z","depth":0,"parameterNumber":2,"parameterNumberName":"V-component_of_WINDS"},"data":[-3.2024,-3.2036,-3.2033,-3.2046,-3.2046,-3.2054,-3.2057,-3.2059,-3.2061,-3.2071,-3.2076,-3.2075,-3.2076,-3.2081,-3.2087,-3.2086,-3.2088,-3.2094,-3.2092,-3.2069,-3.2065,-3.2062,-3.2059,-3.2094,-3.2094,-3.2115,-3.2115,-3.2115,-3.2006,-3.2006,-3.2013,-3.2017,-3.2023,-3.2016,-3.2019,-3.2024,-3.2031,-3.2034,-3.2039,-3.2047,-3.2054,-3.2052,-3.2058,-3.2063,-3.206,-3.2065,-3.2064,-3.2064,-3.204,-3.2036,-3.2067,-3.2067,-3.2067,-3.2067,-3.2067,-3.2067,-3.1973,-3.1981,-3.1982,-3.1989,-3.1991,-3.1994,-3.2001,-3.2,-3.2006,-3.2012,-3.2008,-3.2017,-3.2019,-3.2025,-3.2027,-3.2033,-3.2027,-3.2032,-3.2032,-3.2033,-3.2034,-3.2002,-3.2034,-3.2034,-3.2034,-3.2034,-3.2034,0,-3.1948,-3.1946,-3.1952,-3.1957,-3.1962,-3.1966,-3.197,-3.1974,-3.1968,-3.1974,-3.1982,-3.1986,-3.1994,-3.2,-3.2006,-3.2006,-3.1999,-3.1999,-3.2001,-3.2002,-3.2002,-3.2,-3.1959,-3.1997,-3.1997,-3.1997,-3.1997,-3.1996,-3.1913,-3.1923,-3.1924,-3.1928,-3.193,-3.1937,-3.1941,-3.1936,-3.194,-3.1944,-3.1951,-3.1958,-3.1963,-3.1976,-3.1974,-3.198,-3.1977,-3.1991,-3.1977,-3.1978,-3.1975,-3.1973,-3.1974,-3.1993,-3.1993,-3.1994,-3.1994,0,-3.1894,-3.189,-3.1905,-3.1904,-3.1905,-3.1915,-3.1915,-3.1922,-3.1921,-3.1931,-3.1933,-3.193,-3.1937,-3.1933,-3.1942,-3.1939,-3.1955,-3.1952,-3.1954,-3.1952,-3.1964,-3.1962,-3.2004,-3.2009,-3.1973,-3.1974,-3.1974,0,-3.1862,-3.1875,-3.1869,-3.1877,-3.1892,-3.1885,-3.19,-3.1899,-3.1901,-3.1909,-3.1901,-3.1908,-3.1902,-3.1909,-3.1906,-3.1918,-3.192,-3.1918,-3.1917,-3.1918,-3.1918,-3.1919,-3.1917,-3.1916,-3.1915,-3.1915,-3.1915,0,-3.183,-3.1843,-3.1857,-3.1859,-3.186,-3.1867,-3.1868,-3.187,-3.1874,-3.1879,-3.1881,-3.1888,-3.1891,-3.1896,-3.1891,-3.1882,-3.1907,-3.1893,-3.1905,-3.1905,-3.191,-3.1909,-3.1949,-3.1915,-3.1915,-3.1915,-3.1915,0,-3.1803,-3.1808,-3.183,-3.183,-3.1834,-3.1843,-3.1849,-3.1856,-3.1859,-3.1857,-3.1861,-3.1855,-3.1866,-3.1853,-3.1868,-3.1857,-3.1861,-3.1861,-3.1862,-3.1861,-3.1845,-3.1866,-3.1906,-3.1909,-3.1862,-3.1862,-3.1861,0,-3.1767,-3.1788,-3.1782,-3.1803,-3.1812,-3.1801,-3.1812,-3.1814,-3.1813,-3.182,-3.1819,-3.1827,-3.1816,-3.1818,-3.1827,-3.1825,-3.184,-3.1824,-3.1833,-3.1833,-3.183,-3.1867,-3.1873,-3.1898,-3.1856,-3.1856,-3.1857,0,-3.1738,-3.1739,-3.1743,-3.1745,-3.1748,-3.1756,-3.1768,-3.1775,-3.178,-3.1785,-3.1794,-3.1807,-3.1799,-3.1803,-3.1798,-3.1807,-3.183,-3.1797,-3.1797,-3.1802,-3.1853,-3.1858,-3.1863,-3.1825,-3.1825,-3.1826,-3.1852,0,-3.1695,-3.1705,-3.1717,-3.1722,-3.1728,-3.1741,-3.1736,-3.1743,-3.1737,-3.1735,-3.175,-3.1752,-3.1759,-3.1764,-3.1759,-3.1781,-3.1777,-3.1768,-3.1753,-3.1778,-3.1786,-3.179,-3.1741,-3.174,-3.174,-3.174,0,0,-3.166,-3.1674,-3.1668,-3.168,-3.1684,-3.1672,-3.1687,-3.169,-3.1695,-3.1698,-3.169,-3.1708,-3.171,-3.1729,-3.1736,-3.174,-3.1743,-3.1734,-3.1767,-3.177,-3.1772,-3.1781,-3.1785,-3.1739,-3.1739,-3.1739,-3.1739,0,-3.1642,-3.1645,-3.1659,-3.1662,-3.1665,-3.1662,-3.1666,-3.1667,-3.1667,-3.1682,-3.1672,-3.168,-3.1696,-3.1698,-3.1701,-3.1733,-3.1724,-3.1736,-3.1753,-3.1763,-3.1767,-3.177,-3.1779,-3.1783,-3.1738,-3.1738,-3.1738,0,-3.1611,-3.1612,-3.1619,-3.1629,-3.1631,-3.1641,-3.1624,-3.1636,-3.1643,-3.163,-3.1645,-3.1645,-3.1648,-3.1667,-3.1676,-3.1669,-3.1706,-3.1694,-3.1697,-3.1697,-3.1706,-3.1711,-3.1714,-3.1664,-3.1664,-3.1664,0,0,-3.1597,-3.1607,-3.1606,-3.1625,-3.1627,-3.1623,-3.1628,-3.1623,-3.1626,-3.1628,-3.1628,-3.1631,-3.164,-3.1646,-3.1653,-3.1675,-3.1675,-3.1685,-3.1689,-3.1692,-3.1694,-3.1704,-3.1708,-3.1663,-3.1663,-3.1663,0,0,-3.159,-3.159,-3.1584,-3.1604,-3.1608,-3.1608,-3.1619,-3.1612,-3.1619,-3.1616,-3.1609,-3.1609,-3.1627,-3.1628,-3.1616,-3.1648,-3.1633,-3.1636,-3.1646,-3.1651,-3.1654,-3.1653,-3.1599,0,0,0,0,0,-3.157,-3.159,-3.1584,-3.1587,-3.1599,-3.1611,-3.1613,-3.1607,-3.1596,-3.1605,-3.1604,-3.1595,-3.162,-3.1609,-3.1612,-3.1625,-3.1651,-3.1653,-3.1655,-3.1673,-3.1678,-3.1682,0,0,0,0,0,0,-3.1571,-3.1574,-3.1584,-3.1585,-3.1587,-3.161,-3.1591,-3.159,-3.1595,-3.1593,-3.1595,-3.1595,-3.159,-3.1607,-3.161,-3.1622,-3.1598,-3.1652,-3.1653,-3.1655,-3.1675,-3.1678,-3.1682,0,0,0,0,0,-3.1572,-3.1574,-3.1595,-3.1584,-3.1587,-3.1583,-3.159,-3.1589,-3.1593,-3.1591,-3.159,-3.1588,-3.159,-3.1592,-3.1609,-3.1621,-3.1596,-3.1597,-3.1653,-3.1654,-3.1655,-3.1677,0,0,0,0,0,0,-3.1572,-3.1573,-3.1596,-3.1596,-3.1576,-3.1582,-3.1583,-3.1589,-3.1591,-3.159,-3.1583,-3.1582,-3.1591,-3.1592,-3.1594,-3.1621,-3.1594,-3.1595,-3.1596,-3.1654,-3.1655,-3.1656,0,0,0,0,0,0,-3.1572,-3.1574,-3.1596,-3.1586,-3.1585,-3.1581,-3.1581,-3.1595,-3.1591,-3.1583,-3.1582,-3.1583,-3.1589,-3.1592,-3.1594,-3.1615,-3.1593,-3.1594,-3.1595,-3.1595,-3.1655,-3.1656,0,0,0,0,0,0,-3.1573,-3.1574,-3.1586,-3.1585,-3.1585,-3.1589,-3.1592,-3.1605,-3.1583,-3.1583,-3.158,-3.1579,-3.1589,-3.159,-3.1593,-3.1614,-3.1615,-3.1593,-3.1594,-3.1594,-3.1595,0,0,0,0,0,0,0,-3.1573,-3.1563,-3.1593,-3.1585,-3.1584,-3.16,-3.16,-3.1601,-3.1582,-3.1581,-3.1581,-3.158,-3.1588,-3.1589,-3.159,-3.1614,0,0,-3.1593,-3.1594,0,0,0,0,0,0,0,0,-3.1562,-3.1563,-3.1593,-3.1593,-3.1593,-3.16,-3.16,-3.1601,-3.1582,-3.1581,-3.1581,-3.158,-3.1588,-3.1589,-3.159,0,0,0,0,0,0,0,0,0,0,0,0,0,0,0,-3.1593,-3.1593,0,-3.16,-3.16,-3.1601,-3.1582,-3.1582,-3.1581,-3.158,-3.1588,-3.1589,-3.159,0,0,0,0,0,0,0,0,0,0,0,0,0,0,0,0,0,0,0,0,0,0,0,0,0,0,0,0,0,0,0,0,0,0,0,0,0,0,0,0,0,0,0,0,0,0,0,0,0,0,0,0,0,0,0,0,0,0,0,0,0,0,0,0,0,0,0,0,0]}]]]